Weather History for Hot Springs, AR

Change the Weather History Date:

Wednesday, December 5, 2012

  Actual Average Record
Temperature  
Mean Temperature 54 °F -  
Max Temperature 61 °F 55 °F 80 °F (1956)
Min Temperature 46 °F 34 °F 24 °F (2006)
Degree Days  
Heating Degree Days 12    
Growing Degree Days 4 (Base 50)    
Moisture  
Dew Point 39 °F    
Average Humidity 56    
Maximum Humidity 74    
Minimum Humidity 42    
Precipitation  
Precipitation 0.00 in - - ()
Sea Level Pressure  
Sea Level Pressure 30.20 in    
Wind  
Wind Speed 6 mph (ENE)    
Max Wind Speed 14 mph    
Max Gust Speed 18 mph    
Visibility 10 miles    
Events      
Averages and records for this station are not official NWS values.
T = Trace of Precipitation, MM = Missing Value Source: NWS Daily Summary

Daily Weather History Graph

Daily Weather History Graph

Search for Another Location

Airport:

Trip Planner

Search our weather history database for the weather conditions in past years. The results will help you decide how hot, cold, wet, or windy it might be!

Date:

Astronomy

Dec. 05, 2012 Rise Set
Actual Time 7:04 AM CST 5:01 PM CST
Civil Twilight 6:36 AM CST 5:29 PM CST
Nautical Twilight 6:05 AM CST 6:00 PM CST
Astronomical Twilight 5:35 AM CST 6:31 PM CST
Moon 11:39 PM CST (12/5) 11:39 AM CST (12/5)
Length of Visible Light 10h 52m
Length of Day
9h 57m
Waning Gibbous, 59% of the Moon is Illuminated
Dec 5
Waning Gibbous
Dec 6
Last Quarter
Dec 13
New
Dec 19
First Quarter
Dec 28
Full

Hourly Weather History & Observations

Time (CST) Temp. Dew Point Humidity Pressure Visibility Wind Dir Wind Speed Gust Speed Precip Events Conditions
12:53 AM 53.1 °F 35.1 °F 50% 30.25 in 10.0 mi NE 9.2 mph - N/A   Overcast
1:53 AM 51.1 °F 36.0 °F 56% 30.27 in 10.0 mi NNE 3.5 mph - N/A   Overcast
2:53 AM 48.9 °F 36.0 °F 61% 30.26 in 10.0 mi East 3.5 mph - N/A   Partly Cloudy
3:53 AM 48.9 °F 36.0 °F 61% 30.27 in 10.0 mi Calm Calm - N/A   Clear
4:53 AM 48.0 °F 36.0 °F 63% 30.26 in 10.0 mi NE 4.6 mph - N/A   Clear
5:53 AM 46.0 °F 37.0 °F 71% 30.28 in 10.0 mi Calm Calm - N/A   Clear
6:53 AM 48.0 °F 37.0 °F 66% 30.29 in 10.0 mi NNE 5.8 mph - N/A   Scattered Clouds
8:53 AM 51.1 °F 35.1 °F 54% 30.30 in 10.0 mi East 8.1 mph - N/A   Clear
9:53 AM 55.0 °F 35.1 °F 47% 30.29 in 10.0 mi East 9.2 mph 18.4 mph N/A   Clear
10:53 AM 57.9 °F 35.1 °F 42% 30.25 in 10.0 mi ENE 12.7 mph - N/A   Clear
11:53 AM 61.0 °F 39.0 °F 44% 30.22 in 10.0 mi East 12.7 mph - N/A   Clear
12:53 PM 60.1 °F 45.0 °F 57% 30.21 in 10.0 mi ENE 10.4 mph - N/A   Mostly Cloudy
1:25 PM 59.0 °F 42.8 °F 55% 30.20 in 10.0 mi ENE 13.8 mph - N/A   Overcast
1:53 PM 60.1 °F 41.0 °F 49% 30.19 in 10.0 mi ENE 10.4 mph - N/A   Overcast
2:15 PM 60.8 °F 39.2 °F 45% 30.18 in 10.0 mi East 10.4 mph - N/A   Overcast
2:53 PM 60.1 °F 39.0 °F 46% 30.17 in 10.0 mi East 5.8 mph - N/A   Overcast
3:53 PM 60.1 °F 37.0 °F 42% 30.16 in 10.0 mi ENE 6.9 mph - N/A   Overcast
4:53 PM 57.9 °F 37.0 °F 46% 30.15 in 10.0 mi East 3.5 mph - N/A   Overcast
5:53 PM 55.4 °F 39.2 °F 54% 30.16 in 10.0 mi East 3.5 mph - N/A   Overcast
6:53 PM 54.0 °F 39.9 °F 59% 30.16 in 10.0 mi Calm Calm - N/A   Overcast
7:53 PM 55.0 °F 39.9 °F 57% 30.16 in 10.0 mi Calm Calm - N/A   Overcast
8:53 PM 55.0 °F 41.0 °F 59% 30.14 in 10.0 mi Calm Calm - N/A   Overcast
9:36 PM 53.6 °F 41.0 °F 62% 30.12 in 10.0 mi Calm Calm - N/A   Scattered Clouds
9:53 PM 52.0 °F 41.0 °F 66% 30.12 in 10.0 mi Calm Calm - N/A   Clear
10:53 PM 50.0 °F 42.1 °F 74% 30.10 in 10.0 mi Calm Calm - N/A   Overcast
11:53 PM 51.1 °F 43.0 °F 74% 30.09 in 10.0 mi Calm Calm - N/A   Overcast